ヒル彗星

496P/Hill (2025)

English version
Home page
Updated on May 27, 2025

---------------------------------------------------------------------

・ プロフィール

符号 496P/2024 S3
検出日 2024年9月26日、10月7日
検出光度 20.2等、20.2等
検出者 Pan-STARRS 2 telescope (Haleakala), Pan-STARRS 1 telescope (Haleakala)

・ 写真集

・ 軌道要素

Epoch 2025 May 5.0 TT = JDT 2460800.5
T 2025 Mar. 10.27849 TT                                 Pike
q   1.6210430            (2000.0)            P               Q
n   0.06541706     Peri.   42.24557     -0.25280933     -0.94002528
a   6.1001715      Node    63.58685     +0.80517644     -0.33564559
e   0.7342627      Incl.   14.81442     +0.53644976     +0.06078252
P  15.1
From 1143 observations 2009 Oct. 14-2025 Feb. 27, mean residual 0".5.

・ 星図

・ 光度変化

        m1 = 10.0 + 5 logΔ + 20.0 log r(t - 30)

---------------------------------------------------------------------

軌道要素はM.P.E.C. 2025-D254に掲載されたものです。
星図はステラナビゲータ Ver.11 (アストロアーツ) で作成したものです。
光度グラフはComet for Windowsで作成したものです。

---------------------------------------------------------------------

Copyright(C) Seiichi Yoshida (comet@aerith.net). All rights reserved.